Location: Pl�tzky
(52.0521°N, 11.8020°E)
Time: 22:28:16
(UTC+00:00)

Okean O Rocket - Pass Details

Date: 22 November 2019
Orbit: 622 x 645 km, 98.2° (Epoch: 11 December)

Event Time Altitude Azimuth Distance (km) Brightness Sun altitude
Rises 16:51:56 0° 203° (SSW) 2,915 5.6 -14.7°
Reaches altitude 10° 16:54:37 10° 221° (SW) 2,009 5.0 -15.1°
Maximum altitude 16:57:52 20° 269° (W) 1,456 4.5 -15.6°
Drops below altitude 10° 17:01:07 10° 317° (NW) 2,012 4.6 -16.1°
Sets 17:03:50 0° 334° (NNW) 2,922 5.2 -16.5°
